{"data":{"norad_id":65512,"epoch":"2026-05-25T01:27:57.940992Z","epoch_age_seconds":63562,"freshness":"FRESH","line1":"1 65512U 25198W   26145.06108728  .00023075  00000+0  69191-3 0  9999","line2":"2 65512  53.1587 275.4932 0001039  75.1571 284.9546 15.34402485 40324","mean_motion":15.34402485,"eccentricity":0.0001039,"inclination_deg":53.1587,"raan_deg":275.4932,"arg_perigee_deg":75.1571,"mean_anomaly_deg":284.9546,"bstar":0.00069191,"rev_number":4032,"period_min":93.847606092739,"perigee_km":461.98509173982,"apogee_km":463.40661680694,"semimajor_km":6840.8328542734,"source":"CELESTRAK","updated_at":"2026-05-25T13:38:20.843978Z"}}